Weather in Chernousovo

Russia / Sverdlovsk Oblast     56°34′36″N   61°14′54″E
temp.,
°C
wind,
m/s
gust,
m/s
humid.,
%
clouds,
%
prec.,
mm/h
press.,
hPa
HPBL,
m
28 july, wed
wed2823:00+11nw39703 0.0 1010186
02:00+8nw36825 0.0 1011122
05:00+6wnw36886 0.0 1011133
08:00+12nw47585 0.0 10111033
11:00+13nw5848100 0.0 10111705
14:00+14nw685498 0.1 10101540
17:00+15wnw574797 0.3 10101972
20:00+12wnw386130 0.0 1011512
29 july, thu
thu2923:00+10wnw267223 0.0 1012202
02:00+6wnw24875 0.0 101266
05:00+6w39965 0.0 1012207
08:00+12w4859100 0.0 1011465
11:00+19w594256 0.0 10102147
14:00+20w41040100 0.0 10082767
17:00+20w4104480 0.0 10081875
20:00+17wsw226519 0.1 100731
30 july, fri
fri3023:00+12sw358829 0.4 100870
02:00+12wsw3109379 0.2 1007298
05:00+14wsw31097100 0.5 1007338
08:00+15s2692100 0.0 1007285
11:00+18s456483 0.0 10061191
14:00+19ssw3563100 0.0 10051133
17:00+19sw466599 0.1 1004733
20:00+18w47745 0.0 1004608
31 july, sat
sat3123:00+14wsw310941 0.0 1005294
02:00+14wsw312969 0.0 1005361
05:00+15w413895 0.0 1005510
08:00+18wnw5117611 0.0 1007708
11:00+23nw47525 0.0 10081233
14:00+27nw46395 0.0 10082169
17:00+27wnw4537100 0.0 10082317
20:00+22w2660100 0.0 1009130
1 august, sun
sun123:00+18sw346786 0.0 101053
02:00+17ssw34765 0.0 100958
05:00+16ssw3977100 0.0 1009159
08:00+21sw396439 0.0 1009318
11:00+28wsw474369 0.0 10081294
14:00+30wsw583671 0.0 10082884
17:00+25w495899 0.0 1009467
20:00+21sw248716 2.8 100975